Time,TemperatureF,DewpointF,PressureIn,WindDirection,WindDirectionDegrees,WindSpeedMPH,WindSpeedGustMPH,Humidity,HourlyPrecipIn,Conditions,Clouds,dailyrainin,SoftwareType,DateUTC
2013-02-27 00:00:00,31.8,29.8,-100.00,WNW,298,5.0,17.0,92,0.00,,,0.00,meteohub,2013-02-27 06:00:00,
2013-02-27 00:05:00,31.8,29.8,-100.00,WNW,298,7.0,16.0,92,0.00,,,0.00,meteohub,2013-02-27 06:05:00,
2013-02-27 00:10:00,31.8,29.8,-100.00,WNW,291,1.0,16.0,92,0.00,,,0.00,meteohub,2013-02-27 06:10:00,
2013-02-27 00:15:00,31.8,29.8,-100.00,WNW,300,6.0,14.0,92,0.00,,,0.00,meteohub,2013-02-27 06:15:00,
2013-02-27 00:20:00,31.6,29.7,-100.00,WNW,302,5.0,14.0,92,0.00,,,0.00,meteohub,2013-02-27 06:20:00,
2013-02-27 00:25:00,31.6,29.7,-100.00,WNW,298,8.0,14.0,92,0.00,,,0.00,meteohub,2013-02-27 06:25:00,
2013-02-27 00:30:00,31.6,29.7,-100.00,WNW,300,5.0,14.0,92,0.00,,,0.00,meteohub,2013-02-27 06:30:00,
2013-02-27 00:32:00,31.6,29.7,-100.00,WNW,300,3.0,12.0,92,0.00,,,0.00,meteohub,2013-02-27 06:32:00,
2013-02-27 00:37:00,31.6,29.7,-100.00,WNW,287,3.0,13.0,92,0.00,,,0.00,meteohub,2013-02-27 06:37:00,
2013-02-27 00:42:00,31.6,29.7,-100.00,West,272,4.0,13.0,92,0.00,,,0.00,meteohub,2013-02-27 06:42:00,
2013-02-27 00:47:00,31.6,29.7,-100.00,WNW,299,3.0,13.0,92,0.00,,,0.00,meteohub,2013-02-27 06:47:00,
2013-02-27 00:52:00,31.6,29.7,-100.00,WNW,294,5.0,11.0,92,0.00,,,0.00,meteohub,2013-02-27 06:52:00,
2013-02-27 00:57:00,31.6,29.7,-100.00,WNW,292,1.0,11.0,92,0.00,,,0.00,meteohub,2013-02-27 06:57:00,
2013-02-27 01:02:00,31.6,29.7,-100.00,NW,306,6.0,12.0,92,0.00,,,0.00,meteohub,2013-02-27 07:02:00,
2013-02-27 01:07:00,31.6,29.7,-100.00,WNW,294,1.0,13.0,92,0.00,,,0.00,meteohub,2013-02-27 07:07:00,
2013-02-27 01:12:00,31.6,29.7,-100.00,WNW,291,3.0,13.0,92,0.00,,,0.00,meteohub,2013-02-27 07:12:00,
2013-02-27 01:17:00,31.6,29.7,-100.00,WNW,301,2.0,12.0,92,0.00,,,0.00,meteohub,2013-02-27 07:17:00,
2013-02-27 01:22:00,31.6,29.8,-100.00,West,277,1.0,10.0,93,0.00,,,0.00,meteohub,2013-02-27 07:22:00,
2013-02-27 01:27:00,31.6,29.8,-100.00,WNW,299,6.0,10.0,93,0.00,,,0.00,meteohub,2013-02-27 07:27:00,
2013-02-27 01:32:00,31.6,29.8,-100.00,West,279,2.0,14.0,93,0.00,,,0.00,meteohub,2013-02-27 07:32:00,
2013-02-27 01:37:00,31.6,29.8,-100.00,WNW,296,3.0,14.0,93,0.00,,,0.00,meteohub,2013-02-27 07:37:00,
2013-02-27 01:42:00,31.6,29.8,-100.00,West,275,0.0,14.0,93,0.00,,,0.00,meteohub,2013-02-27 07:42:00,
2013-02-27 01:47:00,31.6,29.8,-100.00,WNW,300,0.0,11.0,93,0.00,,,0.00,meteohub,2013-02-27 07:47:00,
2013-02-27 01:52:00,31.6,29.8,-100.00,WNW,290,5.0,9.0,93,0.00,,,0.00,meteohub,2013-02-27 07:52:00,
2013-02-27 01:57:00,31.6,29.8,-100.00,WNW,287,2.0,10.0,93,0.00,,,0.00,meteohub,2013-02-27 07:57:00,
2013-02-27 02:07:00,31.6,29.8,-100.00,WNW,286,0.0,10.0,93,0.00,,,0.00,meteohub,2013-02-27 08:07:00,
2013-02-27 02:12:00,31.6,29.8,-100.00,WNW,299,5.0,8.0,93,0.00,,,0.00,meteohub,2013-02-27 08:12:00,
2013-02-27 02:17:00,31.8,30.0,-100.00,NW,310,5.0,9.0,93,0.00,,,0.00,meteohub,2013-02-27 08:17:00,
2013-02-27 02:22:00,31.6,29.8,-100.00,WNW,282,2.0,9.0,93,0.00,,,0.00,meteohub,2013-02-27 08:22:00,
2013-02-27 02:26:00,31.8,30.0,-100.00,WNW,301,3.0,9.0,93,0.00,,,0.00,meteohub,2013-02-27 08:26:00,
2013-02-27 02:31:00,31.8,30.0,-100.00,WNW,289,1.0,10.0,93,0.00,,,0.00,meteohub,2013-02-27 08:31:00,
2013-02-27 02:36:00,31.8,30.0,-100.00,NW,308,7.0,10.0,93,0.00,,,0.00,meteohub,2013-02-27 08:36:00,
2013-02-27 02:41:00,31.8,30.0,-100.00,WNW,290,3.0,12.0,93,0.00,,,0.00,meteohub,2013-02-27 08:41:00,
2013-02-27 02:46:00,31.8,30.4,-100.00,West,276,3.0,12.0,94,0.00,,,0.00,meteohub,2013-02-27 08:46:00,
2013-02-27 02:51:00,31.8,30.4,-100.00,WNW,298,2.0,12.0,94,0.00,,,0.00,meteohub,2013-02-27 08:51:00,
2013-02-27 02:56:00,31.8,30.4,-100.00,West,278,8.0,12.0,94,0.00,,,0.00,meteohub,2013-02-27 08:56:00,
2013-02-27 03:01:00,31.8,30.4,-100.00,WNW,297,5.0,13.0,94,0.00,,,0.00,meteohub,2013-02-27 09:01:00,
2013-02-27 03:06:00,31.8,30.4,-100.00,WNW,291,4.0,13.0,94,0.00,,,0.00,meteohub,2013-02-27 09:06:00,
2013-02-27 03:11:00,31.8,30.4,-100.00,WNW,292,1.0,13.0,94,0.00,,,0.00,meteohub,2013-02-27 09:11:00,
2013-02-27 03:16:00,31.8,30.4,-100.00,West,266,1.0,14.0,94,0.00,,,0.00,meteohub,2013-02-27 09:16:00,
2013-02-27 03:19:00,31.8,30.4,-100.00,WNW,284,5.0,14.0,94,0.00,,,0.00,meteohub,2013-02-27 09:19:00,
2013-02-27 03:24:00,31.8,30.4,-100.00,West,271,12.0,14.0,94,0.00,,,0.00,meteohub,2013-02-27 09:24:00,
2013-02-27 03:29:00,31.8,30.4,-100.00,WNW,295,6.0,13.0,94,0.00,,,0.00,meteohub,2013-02-27 09:29:00,
2013-02-27 03:34:00,31.8,30.4,-100.00,WNW,294,5.0,13.0,94,0.00,,,0.00,meteohub,2013-02-27 09:34:00,
2013-02-27 03:39:00,31.8,30.0,-100.00,WNW,290,7.0,15.0,93,0.00,,,0.00,meteohub,2013-02-27 09:39:00,
2013-02-27 03:44:00,31.8,30.0,-100.00,West,281,9.0,15.0,93,0.00,,,0.00,meteohub,2013-02-27 09:44:00,
2013-02-27 03:49:00,31.6,29.8,-100.00,WNW,284,3.0,15.0,93,0.00,,,0.00,meteohub,2013-02-27 09:49:00,
2013-02-27 03:54:00,31.6,29.8,-100.00,NW,304,4.0,16.0,93,0.00,,,0.00,meteohub,2013-02-27 09:54:00,
2013-02-27 03:59:00,31.6,29.8,-100.00,WNW,290,10.0,16.0,93,0.00,,,0.00,meteohub,2013-02-27 09:59:00,
2013-02-27 04:04:00,31.6,30.2,-100.00,WNW,296,11.0,16.0,94,0.00,,,0.00,meteohub,2013-02-27 10:04:00,
2013-02-27 04:09:00,31.6,30.2,-100.00,WNW,288,3.0,14.0,94,0.00,,,0.00,meteohub,2013-02-27 10:09:00,
2013-02-27 04:14:00,31.6,30.2,-100.00,WNW,291,2.0,13.0,94,0.00,,,0.00,meteohub,2013-02-27 10:14:00,
2013-02-27 04:19:00,31.6,30.2,-100.00,WNW,301,5.0,14.0,94,0.00,,,0.00,meteohub,2013-02-27 10:19:00,
2013-02-27 04:24:00,31.6,30.2,-100.00,WNW,302,4.0,14.0,94,0.00,,,0.00,meteohub,2013-02-27 10:24:00,
2013-02-27 04:29:00,31.6,30.2,-100.00,WNW,286,3.0,14.0,94,0.00,,,0.00,meteohub,2013-02-27 10:29:00,
2013-02-27 04:34:00,31.5,29.7,-100.00,WNW,299,3.0,14.0,93,0.00,,,0.00,meteohub,2013-02-27 10:34:00,
2013-02-27 04:39:00,31.5,29.7,-100.00,WNW,292,4.0,14.0,93,0.00,,,0.00,meteohub,2013-02-27 10:39:00,
2013-02-27 04:44:00,31.5,29.7,-100.00,WNW,298,3.0,14.0,93,0.00,,,0.00,meteohub,2013-02-27 10:44:00,
2013-02-27 04:49:00,31.5,29.7,-100.00,NW,321,8.0,13.0,93,0.00,,,0.00,meteohub,2013-02-27 10:49:00,
2013-02-27 04:54:00,31.5,29.7,-100.00,NW,306,10.0,13.0,93,0.00,,,0.00,meteohub,2013-02-27 10:54:00,
2013-02-27 04:59:00,31.5,29.7,-100.00,NW,311,10.0,13.0,93,0.00,,,0.00,meteohub,2013-02-27 10:59:00,
2013-02-27 05:04:00,31.5,29.7,-100.00,NW,306,8.0,14.0,93,0.00,,,0.00,meteohub,2013-02-27 11:04:00,
2013-02-27 05:09:00,31.5,29.7,-100.00,WNW,301,4.0,14.0,93,0.00,,,0.00,meteohub,2013-02-27 11:09:00,
2013-02-27 05:14:00,31.5,29.7,-100.00,NW,309,2.0,14.0,93,0.00,,,0.00,meteohub,2013-02-27 11:14:00,
2013-02-27 05:19:00,31.5,29.7,-100.00,WNW,286,3.0,14.0,93,0.00,,,0.00,meteohub,2013-02-27 11:19:00,
2013-02-27 05:24:00,31.5,29.7,-100.00,West,277,0.0,12.0,93,0.00,,,0.00,meteohub,2013-02-27 11:24:00,
2013-02-27 05:29:00,31.5,29.7,-100.00,WNW,302,5.0,12.0,93,0.00,,,0.00,meteohub,2013-02-27 11:29:00,
2013-02-27 05:34:00,31.5,29.7,-100.00,WNW,294,4.0,10.0,93,0.00,,,0.00,meteohub,2013-02-27 11:34:00,
2013-02-27 05:39:00,31.5,29.7,-100.00,WNW,302,6.0,11.0,93,0.00,,,0.00,meteohub,2013-02-27 11:39:00,
2013-02-27 05:44:00,31.5,29.7,-100.00,WNW,296,6.0,12.0,93,0.00,,,0.00,meteohub,2013-02-27 11:44:00,
2013-02-27 05:49:00,31.5,29.7,-100.00,WNW,303,4.0,12.0,93,0.00,,,0.00,meteohub,2013-02-27 11:49:00,
2013-02-27 05:54:00,31.5,29.7,-100.00,West,269,5.0,12.0,93,0.00,,,0.00,meteohub,2013-02-27 11:54:00,
2013-02-27 05:59:00,31.3,29.5,-100.00,WNW,290,3.0,11.0,93,0.00,,,0.00,meteohub,2013-02-27 11:59:00,
2013-02-27 06:04:00,31.3,29.5,-100.00,WNW,290,3.0,11.0,93,0.00,,,0.00,meteohub,2013-02-27 12:04:00,
2013-02-27 06:09:00,31.3,29.5,-100.00,WNW,291,2.0,11.0,93,0.00,,,0.00,meteohub,2013-02-27 12:09:00,
2013-02-27 06:14:00,31.3,29.5,-100.00,WNW,284,1.0,13.0,93,0.00,,,0.00,meteohub,2013-02-27 12:14:00,
2013-02-27 06:19:00,31.3,29.5,-100.00,WSW,242,4.0,13.0,93,0.00,,,0.00,meteohub,2013-02-27 12:19:00,
2013-02-27 06:24:00,31.3,29.5,-100.00,West,277,0.0,13.0,93,0.00,,,0.00,meteohub,2013-02-27 12:24:00,
2013-02-27 06:30:00,31.3,29.8,-100.00,West,275,3.0,11.0,94,0.00,,,0.00,meteohub,2013-02-27 12:30:00,
2013-02-27 06:35:00,31.3,29.8,-100.00,West,259,1.0,11.0,94,0.00,,,0.00,meteohub,2013-02-27 12:35:00,
2013-02-27 06:40:00,31.1,29.3,-100.00,West,270,2.0,11.0,93,0.00,,,0.00,meteohub,2013-02-27 12:40:00,
2013-02-27 06:45:00,31.1,29.3,-100.00,West,261,1.0,11.0,93,0.00,,,0.00,meteohub,2013-02-27 12:45:00,
2013-02-27 06:50:00,31.1,29.3,-100.00,West,271,0.0,12.0,93,0.00,,,0.00,meteohub,2013-02-27 12:50:00,
2013-02-27 06:55:00,31.1,29.3,-100.00,WNW,302,3.0,12.0,93,0.00,,,0.00,meteohub,2013-02-27 12:55:00,
2013-02-27 07:00:00,31.1,29.3,-100.00,WNW,300,6.0,12.0,93,0.00,,,0.00,meteohub,2013-02-27 13:00:00,
2013-02-27 07:05:00,31.1,29.3,-100.00,WNW,284,4.0,10.0,93,0.00,,,0.00,meteohub,2013-02-27 13:05:00,
2013-02-27 07:10:00,31.1,29.3,-100.00,WNW,288,5.0,10.0,93,0.00,,,0.00,meteohub,2013-02-27 13:10:00,
2013-02-27 07:15:00,30.9,29.1,-100.00,WNW,286,0.0,10.0,93,0.00,,,0.00,meteohub,2013-02-27 13:15:00,
2013-02-27 07:20:00,30.9,29.1,-100.00,WSW,252,2.0,10.0,93,0.00,,,0.00,meteohub,2013-02-27 13:20:00,
2013-02-27 07:25:00,31.1,29.3,-100.00,NW,306,6.0,10.0,93,0.00,,,0.00,meteohub,2013-02-27 13:25:00,
2013-02-27 07:30:00,31.1,29.3,-100.00,WNW,285,0.0,11.0,93,0.00,,,0.00,meteohub,2013-02-27 13:30:00,
2013-02-27 07:35:00,31.1,29.3,-100.00,WNW,296,4.0,11.0,93,0.00,,,0.00,meteohub,2013-02-27 13:35:00,
2013-02-27 07:40:00,31.1,29.3,-100.00,West,275,3.0,11.0,93,0.00,,,0.00,meteohub,2013-02-27 13:40:00,
2013-02-27 07:45:00,31.3,29.8,-100.00,West,279,5.0,10.0,94,0.00,,,0.00,meteohub,2013-02-27 13:45:00,
2013-02-27 07:50:00,31.3,29.8,-100.00,WNW,301,7.0,9.0,94,0.00,,,0.00,meteohub,2013-02-27 13:50:00,
2013-02-27 07:55:00,31.3,29.8,-100.00,West,262,3.0,12.0,94,0.00,,,0.00,meteohub,2013-02-27 13:55:00,
2013-02-27 08:00:00,31.3,29.8,-100.00,WNW,283,4.0,13.0,94,0.00,,,0.00,meteohub,2013-02-27 14:00:00,
2013-02-27 08:05:00,31.5,29.7,-100.00,West,281,3.0,13.0,93,0.00,,,0.00,meteohub,2013-02-27 14:05:00,
2013-02-27 08:10:00,31.5,29.7,-100.00,West,279,1.0,13.0,93,0.00,,,0.00,meteohub,2013-02-27 14:10:00,
2013-02-27 08:15:00,31.5,29.7,-100.00,West,261,3.0,11.0,93,0.00,,,0.00,meteohub,2013-02-27 14:15:00,
2013-02-27 08:20:00,31.6,29.8,-100.00,West,264,3.0,11.0,93,0.00,,,0.00,meteohub,2013-02-27 14:20:00,
2013-02-27 08:25:00,31.6,29.8,-100.00,WNW,288,3.0,11.0,93,0.00,,,0.00,meteohub,2013-02-27 14:25:00,
2013-02-27 08:30:00,31.6,29.8,-100.00,West,276,4.0,11.0,93,0.00,,,0.00,meteohub,2013-02-27 14:30:00,
2013-02-27 08:35:00,31.6,29.8,-100.00,West,267,3.0,11.0,93,0.00,,,0.00,meteohub,2013-02-27 14:35:00,
2013-02-27 08:40:00,31.8,30.0,-100.00,WSW,256,3.0,12.0,93,0.00,,,0.00,meteohub,2013-02-27 14:40:00,
2013-02-27 08:45:00,32.0,30.2,-100.00,WSW,254,10.0,12.0,93,0.00,,,0.00,meteohub,2013-02-27 14:45:00,
2013-02-27 08:50:00,32.2,30.4,-100.00,West,265,4.0,14.0,93,0.00,,,0.00,meteohub,2013-02-27 14:50:00,
2013-02-27 08:55:00,32.2,30.4,-100.00,WNW,288,8.0,14.0,93,0.00,,,0.00,meteohub,2013-02-27 14:55:00,
2013-02-27 09:00:00,32.4,30.6,-100.00,WNW,284,6.0,14.0,93,0.00,,,0.00,meteohub,2013-02-27 15:00:00,
2013-02-27 09:05:00,32.4,30.6,-100.00,West,263,2.0,14.0,93,0.00,,,0.00,meteohub,2013-02-27 15:05:00,
2013-02-27 09:10:00,32.4,30.6,-100.00,West,261,4.0,14.0,93,0.00,,,0.00,meteohub,2013-02-27 15:10:00,
2013-02-27 09:15:00,32.5,30.7,-100.00,West,277,3.0,13.0,93,0.00,,,0.00,meteohub,2013-02-27 15:15:00,
2013-02-27 09:20:00,32.5,30.7,-100.00,West,275,5.0,13.0,93,0.00,,,0.00,meteohub,2013-02-27 15:20:00,
2013-02-27 09:25:00,32.5,30.7,-100.00,WSW,244,1.0,13.0,93,0.00,,,0.00,meteohub,2013-02-27 15:25:00,
2013-02-27 09:30:00,32.5,30.7,-100.00,WNW,284,5.0,14.0,93,0.00,,,0.00,meteohub,2013-02-27 15:30:00,
2013-02-27 09:35:00,32.5,30.7,-100.00,WSW,247,2.0,14.0,93,0.00,,,0.00,meteohub,2013-02-27 15:35:00,
2013-02-27 09:40:00,32.4,30.6,-100.00,West,277,9.0,13.0,93,0.00,,,0.00,meteohub,2013-02-27 15:40:00,
2013-02-27 09:45:00,32.4,30.6,-100.00,West,273,3.0,14.0,93,0.00,,,0.00,meteohub,2013-02-27 15:45:00,
2013-02-27 09:50:00,32.4,30.6,-100.00,West,279,11.0,14.0,93,0.01,,,0.01,meteohub,2013-02-27 15:50:00,
2013-02-27 09:55:00,32.4,30.6,-100.00,WNW,285,7.0,14.0,93,0.01,,,0.01,meteohub,2013-02-27 15:55:00,
2013-02-27 10:00:00,32.4,30.6,-100.00,West,269,10.0,14.0,93,0.01,,,0.01,meteohub,2013-02-27 16:00:00,
2013-02-27 10:05:00,32.4,30.6,-100.00,West,263,9.0,14.0,93,0.01,,,0.01,meteohub,2013-02-27 16:05:00,
2013-02-27 10:11:00,32.4,30.6,-100.00,West,270,4.0,14.0,93,0.01,,,0.01,meteohub,2013-02-27 16:11:00,
2013-02-27 10:16:00,32.5,30.7,-100.00,West,265,5.0,14.0,93,0.01,,,0.01,meteohub,2013-02-27 16:16:00,
2013-02-27 10:21:00,32.5,30.7,-100.00,WNW,289,4.0,14.0,93,0.01,,,0.01,meteohub,2013-02-27 16:21:00,
2013-02-27 10:26:00,32.5,30.7,-100.00,West,277,5.0,14.0,93,0.01,,,0.01,meteohub,2013-02-27 16:26:00,
2013-02-27 10:31:00,32.5,30.7,-100.00,WNW,287,8.0,14.0,93,0.01,,,0.01,meteohub,2013-02-27 16:31:00,
2013-02-27 10:36:00,32.5,30.6,-100.00,West,275,5.0,12.0,92,0.01,,,0.01,meteohub,2013-02-27 16:36:00,
2013-02-27 10:41:00,32.5,30.6,-100.00,West,277,6.0,15.0,92,0.01,,,0.01,meteohub,2013-02-27 16:41:00,
2013-02-27 10:46:00,32.5,30.6,-100.00,West,266,4.0,15.0,92,0.00,,,0.01,meteohub,2013-02-27 16:46:00,
2013-02-27 10:51:00,32.5,30.6,-100.00,WNW,294,9.0,14.0,92,0.00,,,0.01,meteohub,2013-02-27 16:51:00,
2013-02-27 10:56:00,32.4,30.4,-100.00,WNW,298,3.0,18.0,92,0.00,,,0.01,meteohub,2013-02-27 16:56:00,
2013-02-27 11:01:00,32.4,30.4,-100.00,West,271,11.0,18.0,92,0.00,,,0.01,meteohub,2013-02-27 17:01:00,
2013-02-27 11:06:00,32.4,30.4,-100.00,WNW,284,1.0,18.0,92,0.00,,,0.01,meteohub,2013-02-27 17:06:00,
2013-02-27 11:11:00,32.4,30.4,-100.00,WNW,286,0.0,15.0,92,0.00,,,0.01,meteohub,2013-02-27 17:11:00,
2013-02-27 11:16:00,32.4,30.4,-100.00,West,273,0.0,15.0,92,0.00,,,0.01,meteohub,2013-02-27 17:16:00,
2013-02-27 11:21:00,32.4,30.4,-100.00,West,273,0.0,10.0,92,0.00,,,0.01,meteohub,2013-02-27 17:21:00,
2013-02-27 11:26:00,32.4,30.4,-100.00,West,277,0.0,0.0,92,0.00,,,0.01,meteohub,2013-02-27 17:26:00,
2013-02-27 11:31:00,32.4,30.4,-100.00,West,273,0.0,0.0,92,0.00,,,0.01,meteohub,2013-02-27 17:31:00,
2013-02-27 11:36:00,32.5,30.6,-100.00,West,276,0.0,0.0,92,0.00,,,0.01,meteohub,2013-02-27 17:36:00,
2013-02-27 11:41:00,33.1,31.1,-100.00,West,281,0.0,0.0,92,0.00,,,0.01,meteohub,2013-02-27 17:41:00,
2013-02-27 11:46:00,33.4,31.3,-100.00,West,280,7.0,7.0,92,0.00,,,0.01,meteohub,2013-02-27 17:46:00,
2013-02-27 11:51:00,33.8,31.6,-100.00,WSW,245,4.0,14.0,92,0.00,,,0.01,meteohub,2013-02-27 17:51:00,
2013-02-27 11:56:00,34.0,31.8,-100.00,West,268,3.0,14.0,92,0.00,,,0.01,meteohub,2013-02-27 17:56:00,
2013-02-27 12:01:00,33.8,31.6,-100.00,West,267,13.0,16.0,92,0.00,,,0.01,meteohub,2013-02-27 18:01:00,
2013-02-27 12:06:00,33.4,31.1,-100.00,West,272,9.0,16.0,91,0.00,,,0.01,meteohub,2013-02-27 18:06:00,
2013-02-27 12:11:00,33.4,31.1,-100.00,NW,305,9.0,17.0,91,0.00,,,0.01,meteohub,2013-02-27 18:11:00,
2013-02-27 12:16:00,33.1,30.7,-100.00,West,281,4.0,19.0,91,0.00,,,0.01,meteohub,2013-02-27 18:16:00,
2013-02-27 12:21:00,33.1,30.7,-100.00,West,273,10.0,19.0,91,0.00,,,0.01,meteohub,2013-02-27 18:21:00,
2013-02-27 12:26:00,32.9,30.6,-100.00,West,280,5.0,20.0,91,0.00,,,0.01,meteohub,2013-02-27 18:26:00,
2013-02-27 12:31:00,33.1,30.7,-100.00,SW,215,6.0,20.0,91,0.00,,,0.01,meteohub,2013-02-27 18:31:00,
2013-02-27 12:36:00,32.9,30.6,-100.00,WNW,285,15.0,20.0,91,0.00,,,0.01,meteohub,2013-02-27 18:36:00,
2013-02-27 12:41:00,32.9,30.6,-100.00,WNW,294,16.0,19.0,91,0.00,,,0.01,meteohub,2013-02-27 18:41:00,
2013-02-27 12:46:00,32.7,30.4,-100.00,WNW,290,14.0,19.0,91,0.01,,,0.02,meteohub,2013-02-27 18:46:00,
2013-02-27 12:51:00,32.7,30.4,-100.00,West,277,9.0,19.0,91,0.01,,,0.02,meteohub,2013-02-27 18:51:00,
2013-02-27 12:56:00,32.7,30.4,-100.00,WSW,255,10.0,19.0,91,0.01,,,0.02,meteohub,2013-02-27 18:56:00,
2013-02-27 13:02:00,32.9,30.6,-100.00,West,279,5.0,19.0,91,0.01,,,0.02,meteohub,2013-02-27 19:02:00,
2013-02-27 13:07:00,32.9,30.6,-100.00,West,275,7.0,19.0,91,0.01,,,0.02,meteohub,2013-02-27 19:07:00,
2013-02-27 13:12:00,32.7,30.4,-100.00,NW,305,12.0,19.0,91,0.01,,,0.02,meteohub,2013-02-27 19:12:00,
2013-02-27 13:17:00,32.5,30.2,-100.00,WSW,245,4.0,19.0,91,0.01,,,0.02,meteohub,2013-02-27 19:17:00,
2013-02-27 13:22:00,32.7,30.4,-100.00,West,279,9.0,19.0,91,0.01,,,0.02,meteohub,2013-02-27 19:22:00,
2013-02-27 13:27:00,32.7,30.4,-100.00,West,275,7.0,19.0,91,0.02,,,0.03,meteohub,2013-02-27 19:27:00,
2013-02-27 13:32:00,32.7,30.4,-100.00,WNW,287,7.0,16.0,91,0.02,,,0.03,meteohub,2013-02-27 19:32:00,
2013-02-27 13:37:00,32.7,30.4,-100.00,WNW,288,15.0,16.0,91,0.02,,,0.03,meteohub,2013-02-27 19:37:00,
2013-02-27 13:42:00,32.7,30.4,-100.00,West,273,4.0,16.0,91,0.01,,,0.03,meteohub,2013-02-27 19:42:00,
2013-02-27 13:47:00,32.7,30.4,-100.00,West,272,14.0,16.0,91,0.01,,,0.03,meteohub,2013-02-27 19:47:00,
2013-02-27 13:52:00,32.5,30.2,-100.00,WNW,286,15.0,16.0,91,0.01,,,0.03,meteohub,2013-02-27 19:52:00,
2013-02-27 13:57:00,32.4,30.0,-100.00,WNW,285,10.0,19.0,91,0.01,,,0.03,meteohub,2013-02-27 19:57:00,
2013-02-27 14:02:00,32.2,29.8,-100.00,West,281,0.0,19.0,91,0.01,,,0.03,meteohub,2013-02-27 20:02:00,
2013-02-27 14:07:00,32.4,29.8,-100.00,West,280,0.0,19.0,90,0.01,,,0.03,meteohub,2013-02-27 20:07:00,
2013-02-27 14:12:00,32.4,29.8,-100.00,West,281,0.0,19.0,90,0.01,,,0.03,meteohub,2013-02-27 20:12:00,
2013-02-27 14:17:00,32.5,30.2,-100.00,WNW,284,0.0,0.0,91,0.01,,,0.03,meteohub,2013-02-27 20:17:00,
2013-02-27 14:22:00,32.5,30.2,-100.00,WNW,283,0.0,0.0,91,0.00,,,0.03,meteohub,2013-02-27 20:22:00,
2013-02-27 14:27:00,32.5,30.2,-100.00,WNW,283,0.0,0.0,91,0.00,,,0.03,meteohub,2013-02-27 20:27:00,
2013-02-27 14:32:00,32.4,30.0,-100.00,WNW,283,0.0,0.0,91,0.00,,,0.03,meteohub,2013-02-27 20:32:00,
2013-02-27 14:37:00,32.4,30.0,-100.00,West,275,0.0,0.0,91,0.00,,,0.03,meteohub,2013-02-27 20:37:00,
2013-02-27 14:42:00,32.4,30.0,-100.00,WNW,286,0.0,0.0,91,0.00,,,0.03,meteohub,2013-02-27 20:42:00,
2013-02-27 14:47:00,32.4,30.0,-100.00,WNW,286,0.0,0.0,91,0.00,,,0.03,meteohub,2013-02-27 20:47:00,
2013-02-27 14:52:00,32.4,30.0,-100.00,WNW,286,0.0,0.0,91,0.00,,,0.03,meteohub,2013-02-27 20:52:00,
2013-02-27 14:57:00,32.4,30.0,-100.00,WNW,286,0.0,0.0,91,0.00,,,0.03,meteohub,2013-02-27 20:57:00,
2013-02-27 15:02:00,32.4,30.0,-100.00,WNW,286,0.0,0.0,91,0.00,,,0.03,meteohub,2013-02-27 21:02:00,
2013-02-27 15:07:00,32.4,30.0,-100.00,West,273,0.0,0.0,91,0.00,,,0.03,meteohub,2013-02-27 21:07:00,
2013-02-27 15:12:00,32.4,30.0,-100.00,West,281,0.0,0.0,91,0.00,,,0.03,meteohub,2013-02-27 21:12:00,
2013-02-27 15:17:00,32.4,30.0,-100.00,WNW,291,0.0,0.0,91,0.00,,,0.03,meteohub,2013-02-27 21:17:00,
2013-02-27 15:22:00,32.4,30.0,-100.00,WNW,283,0.0,0.0,91,0.00,,,0.03,meteohub,2013-02-27 21:22:00,
2013-02-27 15:27:00,32.5,30.2,-100.00,West,281,0.0,0.0,91,0.00,,,0.03,meteohub,2013-02-27 21:27:00,
2013-02-27 15:32:00,32.5,30.2,-100.00,West,279,0.0,0.0,91,0.00,,,0.03,meteohub,2013-02-27 21:32:00,
2013-02-27 15:37:00,32.4,30.0,-100.00,West,278,0.0,0.0,91,0.00,,,0.03,meteohub,2013-02-27 21:37:00,
2013-02-27 15:42:00,32.4,29.8,-100.00,West,280,0.0,0.0,90,0.00,,,0.03,meteohub,2013-02-27 21:42:00,
2013-02-27 15:47:00,32.4,29.8,-100.00,West,277,0.0,0.0,90,0.00,,,0.03,meteohub,2013-02-27 21:47:00,
2013-02-27 15:52:00,32.2,29.7,-100.00,West,278,0.0,0.0,90,0.00,,,0.03,meteohub,2013-02-27 21:52:00,
2013-02-27 15:57:00,32.2,29.8,-100.00,West,259,0.0,0.0,91,0.00,,,0.03,meteohub,2013-02-27 21:57:00,
2013-02-27 16:02:00,32.2,29.8,-100.00,West,264,0.0,0.0,91,0.00,,,0.03,meteohub,2013-02-27 22:02:00,
2013-02-27 16:07:00,32.0,29.7,-100.00,WNW,298,0.0,0.0,91,0.01,,,0.04,meteohub,2013-02-27 22:07:00,
2013-02-27 16:13:00,31.8,29.5,-100.00,WNW,286,0.0,0.0,91,0.01,,,0.04,meteohub,2013-02-27 22:13:00,
2013-02-27 16:18:00,31.8,29.5,-100.00,West,263,0.0,0.0,91,0.01,,,0.04,meteohub,2013-02-27 22:18:00,
2013-02-27 16:23:00,31.6,29.3,-100.00,WSW,256,0.0,0.0,91,0.01,,,0.04,meteohub,2013-02-27 22:23:00,
2013-02-27 16:28:00,31.6,29.3,-100.00,WNW,291,0.0,0.0,91,0.01,,,0.04,meteohub,2013-02-27 22:28:00,
2013-02-27 16:33:00,31.6,29.3,-100.00,West,269,0.0,0.0,91,0.01,,,0.04,meteohub,2013-02-27 22:33:00,
2013-02-27 16:38:00,31.6,29.3,-100.00,WNW,283,0.0,0.0,91,0.01,,,0.04,meteohub,2013-02-27 22:38:00,
2013-02-27 16:43:00,31.6,29.3,-100.00,West,268,0.0,0.0,91,0.01,,,0.04,meteohub,2013-02-27 22:43:00,
2013-02-27 16:48:00,31.6,29.3,-100.00,WNW,296,0.0,0.0,91,0.01,,,0.04,meteohub,2013-02-27 22:48:00,
2013-02-27 16:53:00,31.5,29.1,-100.00,WNW,288,0.0,0.0,91,0.01,,,0.04,meteohub,2013-02-27 22:53:00,
2013-02-27 16:58:00,31.5,29.1,-100.00,WNW,300,0.0,0.0,91,0.01,,,0.04,meteohub,2013-02-27 22:58:00,
2013-02-27 17:03:00,31.5,29.5,-100.00,West,265,0.0,0.0,92,0.00,,,0.04,meteohub,2013-02-27 23:03:00,
2013-02-27 17:08:00,31.5,29.5,-100.00,West,279,0.0,0.0,92,0.00,,,0.04,meteohub,2013-02-27 23:08:00,
2013-02-27 17:13:00,31.5,29.5,-100.00,NW,311,0.0,0.0,92,0.00,,,0.04,meteohub,2013-02-27 23:13:00,
2013-02-27 17:18:00,31.5,29.5,-100.00,West,281,0.0,0.0,92,0.00,,,0.04,meteohub,2013-02-27 23:18:00,
2013-02-27 17:23:00,31.5,29.5,-100.00,West,280,0.0,0.0,92,0.00,,,0.04,meteohub,2013-02-27 23:23:00,
2013-02-27 17:28:00,31.3,29.3,-100.00,West,259,0.0,0.0,92,0.00,,,0.04,meteohub,2013-02-27 23:28:00,
2013-02-27 17:33:00,31.3,29.3,-100.00,NW,309,0.0,0.0,92,0.00,,,0.04,meteohub,2013-02-27 23:33:00,
2013-02-27 17:38:00,31.3,29.3,-100.00,NW,315,0.0,0.0,92,0.00,,,0.04,meteohub,2013-02-27 23:38:00,
2013-02-27 17:43:00,31.1,29.1,-100.00,NW,315,0.0,0.0,92,0.00,,,0.04,meteohub,2013-02-27 23:43:00,
2013-02-27 17:48:00,30.9,28.9,-100.00,NW,326,0.0,0.0,92,0.00,,,0.04,meteohub,2013-02-27 23:48:00,
2013-02-27 17:53:00,30.9,28.9,-100.00,NW,326,0.0,0.0,92,0.00,,,0.04,meteohub,2013-02-27 23:53:00,
2013-02-27 17:58:00,30.9,28.9,-100.00,WNW,283,0.0,0.0,92,0.00,,,0.04,meteohub,2013-02-27 23:58:00,
2013-02-27 18:03:00,30.9,28.9,-100.00,WSW,249,0.0,0.0,92,0.00,,,0.04,meteohub,2013-02-28 00:03:00,
2013-02-27 18:08:00,30.9,28.9,-100.00,NW,321,0.0,0.0,92,0.00,,,0.00,meteohub,2013-02-28 00:08:00,
2013-02-27 18:13:00,30.9,28.9,-100.00,West,277,0.0,0.0,92,0.00,,,0.00,meteohub,2013-02-28 00:13:00,
2013-02-27 18:18:00,30.9,28.9,-100.00,West,281,0.0,0.0,92,0.00,,,0.00,meteohub,2013-02-28 00:18:00,
2013-02-27 18:23:00,30.9,28.9,-100.00,NW,321,0.0,0.0,92,0.00,,,0.00,meteohub,2013-02-28 00:23:00,
2013-02-27 18:28:00,30.9,28.9,-100.00,WNW,288,0.0,0.0,92,0.00,,,0.00,meteohub,2013-02-28 00:28:00,
2013-02-27 18:33:00,30.9,28.9,-100.00,West,279,0.0,0.0,92,0.00,,,0.00,meteohub,2013-02-28 00:33:00,
2013-02-27 18:38:00,30.9,28.9,-100.00,West,271,0.0,0.0,92,0.00,,,0.00,meteohub,2013-02-28 00:38:00,
2013-02-27 18:43:00,30.9,28.9,-100.00,NW,322,0.0,0.0,92,0.00,,,0.00,meteohub,2013-02-28 00:43:00,
2013-02-27 18:48:00,30.9,28.9,-100.00,West,271,0.0,0.0,92,0.00,,,0.00,meteohub,2013-02-28 00:48:00,
2013-02-27 18:53:00,30.9,28.9,-100.00,WNW,284,0.0,0.0,92,0.00,,,0.00,meteohub,2013-02-28 00:53:00,
2013-02-27 18:58:00,30.9,28.9,-100.00,WNW,291,0.0,0.0,92,0.00,,,0.00,meteohub,2013-02-28 00:58:00,
2013-02-27 19:03:00,30.9,28.9,-100.00,West,279,0.0,0.0,92,0.00,,,0.00,meteohub,2013-02-28 01:03:00,
2013-02-27 19:08:00,30.9,28.9,-100.00,WNW,293,0.0,0.0,92,0.00,,,0.00,meteohub,2013-02-28 01:08:00,
2013-02-27 19:13:00,30.9,28.9,-100.00,WNW,300,0.0,0.0,92,0.00,,,0.00,meteohub,2013-02-28 01:13:00,
2013-02-27 19:18:00,30.7,28.8,-100.00,West,269,0.0,0.0,92,0.00,,,0.00,meteohub,2013-02-28 01:18:00,
2013-02-27 19:24:00,30.7,28.8,-100.00,West,265,0.0,0.0,92,0.00,,,0.00,meteohub,2013-02-28 01:24:00,
2013-02-27 19:29:00,30.7,28.8,-100.00,West,281,0.0,0.0,92,0.00,,,0.00,meteohub,2013-02-28 01:29:00,
2013-02-27 19:34:00,30.7,28.8,-100.00,West,279,0.0,0.0,92,0.00,,,0.00,meteohub,2013-02-28 01:34:00,
2013-02-27 19:39:00,30.7,28.8,-100.00,West,272,0.0,0.0,92,0.00,,,0.00,meteohub,2013-02-28 01:39:00,
2013-02-27 19:44:00,30.7,28.8,-100.00,WNW,284,0.0,0.0,92,0.00,,,0.00,meteohub,2013-02-28 01:44:00,
2013-02-27 19:49:00,30.7,28.8,-100.00,NW,317,0.0,0.0,92,0.00,,,0.00,meteohub,2013-02-28 01:49:00,
2013-02-27 19:54:00,30.7,28.8,-100.00,WNW,292,0.0,0.0,92,0.00,,,0.00,meteohub,2013-02-28 01:54:00,
2013-02-27 19:59:00,30.7,28.4,-100.00,WNW,294,0.0,0.0,91,0.00,,,0.00,meteohub,2013-02-28 01:59:00,
2013-02-27 20:04:00,30.7,28.4,-100.00,West,267,0.0,0.0,91,0.00,,,0.00,meteohub,2013-02-28 02:04:00,
2013-02-27 20:09:00,30.7,28.4,-100.00,West,275,0.0,0.0,91,0.00,,,0.00,meteohub,2013-02-28 02:09:00,
2013-02-27 20:14:00,30.7,28.4,-100.00,WNW,296,0.0,0.0,91,0.00,,,0.00,meteohub,2013-02-28 02:14:00,
2013-02-27 20:19:00,30.7,28.4,-100.00,WNW,290,0.0,0.0,91,0.00,,,0.00,meteohub,2013-02-28 02:19:00,
2013-02-27 20:24:00,30.7,28.4,-100.00,NW,314,0.0,0.0,91,0.00,,,0.00,meteohub,2013-02-28 02:24:00,
2013-02-27 20:29:00,30.7,28.2,-100.00,NW,311,0.0,0.0,90,0.00,,,0.00,meteohub,2013-02-28 02:29:00,
2013-02-27 20:34:00,30.7,28.2,-100.00,West,273,0.0,0.0,90,0.00,,,0.00,meteohub,2013-02-28 02:34:00,
2013-02-27 20:39:00,30.7,28.2,-100.00,West,272,0.0,0.0,90,0.00,,,0.00,meteohub,2013-02-28 02:39:00,
2013-02-27 20:44:00,30.7,28.2,-100.00,West,271,0.0,0.0,90,0.00,,,0.00,meteohub,2013-02-28 02:44:00,
2013-02-27 20:49:00,30.6,28.0,-100.00,West,272,0.0,0.0,90,0.00,,,0.00,meteohub,2013-02-28 02:49:00,
2013-02-27 20:54:00,30.6,28.0,-100.00,West,275,0.0,0.0,90,0.00,,,0.00,meteohub,2013-02-28 02:54:00,
2013-02-27 20:59:00,30.6,28.0,-100.00,WSW,245,0.0,0.0,90,0.00,,,0.00,meteohub,2013-02-28 02:59:00,
2013-02-27 21:04:00,30.6,28.0,-100.00,West,281,0.0,0.0,90,0.00,,,0.00,meteohub,2013-02-28 03:04:00,
2013-02-27 21:09:00,30.6,28.0,-100.00,West,278,0.0,0.0,90,0.00,,,0.00,meteohub,2013-02-28 03:09:00,
2013-02-27 21:14:00,30.4,28.0,-100.00,SW,229,0.0,0.0,91,0.00,,,0.00,meteohub,2013-02-28 03:14:00,
2013-02-27 21:19:00,30.4,28.0,-100.00,WNW,290,0.0,0.0,91,0.00,,,0.00,meteohub,2013-02-28 03:19:00,
2013-02-27 21:24:00,30.4,28.0,-100.00,WNW,286,0.0,0.0,91,0.00,,,0.00,meteohub,2013-02-28 03:24:00,
2013-02-27 21:29:00,30.4,28.0,-100.00,West,273,0.0,0.0,91,0.00,,,0.00,meteohub,2013-02-28 03:29:00,
2013-02-27 21:34:00,30.4,28.0,-100.00,West,272,0.0,0.0,91,0.00,,,0.00,meteohub,2013-02-28 03:34:00,
2013-02-27 21:39:00,30.4,28.0,-100.00,NW,312,0.0,0.0,91,0.00,,,0.00,meteohub,2013-02-28 03:39:00,
2013-02-27 21:44:00,30.6,28.0,-100.00,WNW,302,0.0,0.0,90,0.00,,,0.00,meteohub,2013-02-28 03:44:00,
2013-02-27 21:49:00,30.6,28.0,-100.00,West,264,0.0,0.0,90,0.00,,,0.00,meteohub,2013-02-28 03:49:00,
2013-02-27 21:54:00,30.6,28.0,-100.00,WSW,252,0.0,0.0,90,0.00,,,0.00,meteohub,2013-02-28 03:54:00,
2013-02-27 21:59:00,30.6,28.0,-100.00,West,281,0.0,0.0,90,0.00,,,0.00,meteohub,2013-02-28 03:59:00,
2013-02-27 22:04:00,30.6,28.0,-100.00,WSW,253,0.0,0.0,90,0.00,,,0.00,meteohub,2013-02-28 04:04:00,
2013-02-27 22:09:00,30.6,28.0,-100.00,WNW,285,0.0,0.0,90,0.00,,,0.00,meteohub,2013-02-28 04:09:00,
2013-02-27 22:14:00,30.6,28.0,-100.00,WSW,254,0.0,0.0,90,0.00,,,0.00,meteohub,2013-02-28 04:14:00,
2013-02-27 22:19:00,30.6,28.0,-100.00,WSW,250,0.0,0.0,90,0.00,,,0.00,meteohub,2013-02-28 04:19:00,
2013-02-27 22:24:00,30.6,28.0,-100.00,West,275,0.0,0.0,90,0.00,,,0.00,meteohub,2013-02-28 04:24:00,
2013-02-27 22:29:00,30.6,28.0,-100.00,West,273,0.0,0.0,90,0.00,,,0.00,meteohub,2013-02-28 04:29:00,
2013-02-27 22:34:00,30.6,28.0,-100.00,WNW,283,0.0,0.0,90,0.00,,,0.00,meteohub,2013-02-28 04:34:00,
2013-02-27 22:39:00,30.6,28.0,-100.00,West,261,0.0,0.0,90,0.00,,,0.00,meteohub,2013-02-28 04:39:00,
2013-02-27 22:44:00,30.6,28.0,-100.00,West,275,0.0,0.0,90,0.00,,,0.00,meteohub,2013-02-28 04:44:00,
2013-02-27 22:49:00,30.6,28.0,-100.00,West,261,0.0,0.0,90,0.00,,,0.00,meteohub,2013-02-28 04:49:00,
2013-02-27 22:54:00,30.6,28.0,-100.00,West,267,0.0,0.0,90,0.00,,,0.00,meteohub,2013-02-28 04:54:00,
2013-02-27 22:59:00,30.6,28.0,-100.00,WNW,291,0.0,0.0,90,0.00,,,0.00,meteohub,2013-02-28 04:59:00,
2013-02-27 23:00:00,30.6,28.0,-100.00,WNW,283,0.0,0.0,90,0.00,,,0.00,meteohub,2013-02-28 05:00:00,
2013-02-27 23:05:00,30.6,28.0,-100.00,WSW,248,0.0,0.0,90,0.00,,,0.00,meteohub,2013-02-28 05:05:00,
2013-02-27 23:10:00,30.6,28.0,-100.00,WNW,282,0.0,0.0,90,0.00,,,0.00,meteohub,2013-02-28 05:10:00,
2013-02-27 23:15:00,30.6,28.0,-100.00,West,277,0.0,0.0,90,0.00,,,0.00,meteohub,2013-02-28 05:15:00,
2013-02-27 23:20:00,30.6,28.0,-100.00,NW,306,0.0,0.0,90,0.00,,,0.00,meteohub,2013-02-28 05:20:00,
2013-02-27 23:25:00,30.6,28.0,-100.00,NNW,342,0.0,0.0,90,0.00,,,0.00,meteohub,2013-02-28 05:25:00,
2013-02-27 23:30:00,30.7,28.2,-100.00,West,274,0.0,0.0,90,0.00,,,0.00,meteohub,2013-02-28 05:30:00,
2013-02-27 23:35:00,30.6,28.0,-100.00,WNW,300,0.0,0.0,90,0.00,,,0.00,meteohub,2013-02-28 05:35:00,
2013-02-27 23:40:00,30.6,28.0,-100.00,West,279,0.0,0.0,90,0.00,,,0.00,meteohub,2013-02-28 05:40:00,
2013-02-27 23:45:00,30.6,28.0,-100.00,West,277,0.0,0.0,90,0.00,,,0.00,meteohub,2013-02-28 05:45:00,
2013-02-27 23:50:00,30.6,28.0,-100.00,NW,313,0.0,0.0,90,0.00,,,0.00,meteohub,2013-02-28 05:50:00,
2013-02-27 23:55:00,30.6,28.0,-100.00,WNW,286,0.0,0.0,90,0.00,,,0.00,meteohub,2013-02-28 05:55:00,